Weather History for KCMA - May, 2013

Change the Weather History Date:

Friday, May 24, 2013

  Actual Average Record
Temperature  
Mean Temperature 63 °F 62 °F  
Max Temperature 73 °F 71 °F 79 °F (2006)
Min Temperature 53 °F 53 °F 42 °F (1960)
Degree Days  
Heating Degree Days 2 3  
Month to date heating degree days 3 103  
Since 1 July heating degree days 1423 1923  
Cooling Degree Days 0 0  
Month to date cooling degree days 60 0  
Year to date cooling degree days 87 20  
Growing Degree Days 13 (Base 50)    
Moisture  
Dew Point 49 °F    
Average Humidity 59    
Maximum Humidity 72    
Minimum Humidity 45    
Precipitation  
Precipitation 0.00 in 0.00 in 0.11 in (1993)
Month to date precipitation 0.08 0.30  
Year to date precipitation 2.15 10.92  
Since 1 July precipitation 4.86  
Sea Level Pressure  
Sea Level Pressure 29.98 in    
Wind  
Wind Speed 5 mph (SW)    
Max Wind Speed 15 mph    
Max Gust Speed 20 mph    
Visibility 10 miles    
Events      
T = Trace of Precipitation, MM = Missing Value Source: NWS Daily Summary

Daily Weather History Graph

Daily Weather History Graph

Search for Another Location

Airport or City:

Trip Planner

Search our weather history database for the weather conditions in past years. The results will help you decide how hot, cold, wet, or windy it might be!

Date:

Astronomy

May. 24, 2013 Rise Set
Actual Time 5:48 AM PDT 7:58 PM PDT
Civil Twilight 5:20 AM PDT 8:26 PM PDT
Nautical Twilight 4:45 AM PDT 9:01 PM PDT
Astronomical Twilight 4:08 AM PDT 9:38 PM PDT
Moon 7:46 PM PDT (5/24) 5:22 AM PDT (5/24)
Length of Visible Light 15h 06m
Length of Day
14h 09m
Full, 100% of the Moon is Illuminated
May 24
Full
May 24
Full
May 31
Last Quarter
Jun 8
New
Jun 16
First Quarter

Hourly Weather History & Observations

Time (PDT) Temp. Dew Point Humidity Pressure Visibility Wind Dir Wind Speed Gust Speed Precip Events Conditions
12:55 AM 59.0 °F 46.9 °F 64% 29.94 in 9.0 mi Calm Calm - N/A   Clear
1:55 AM 55.9 °F 46.0 °F 69% 29.93 in 9.0 mi Calm Calm - N/A   Clear
2:55 AM 55.9 °F 45.0 °F 67% 29.93 in 9.0 mi Calm Calm - N/A   Clear
3:55 AM 55.9 °F 46.0 °F 69% 29.94 in 10.0 mi Calm Calm - N/A   Clear
4:55 AM 53.1 °F 44.1 °F 71% 29.95 in 10.0 mi NW 3.5 mph - N/A   Clear
5:55 AM 54.0 °F 44.1 °F 69% 29.96 in 8.0 mi Calm Calm - N/A   Clear
6:55 AM 57.0 °F 46.0 °F 67% 29.99 in 9.0 mi Calm Calm - N/A   Clear
7:55 AM 62.1 °F 46.0 °F 56% 29.99 in 9.0 mi Calm Calm - N/A   Clear
8:55 AM 68.0 °F 46.9 °F 47% 30.00 in 10.0 mi Calm Calm - N/A   Clear
9:55 AM 70.0 °F 48.9 °F 47% 30.00 in 10.0 mi SSW 6.9 mph - N/A   Clear
10:55 AM 71.1 °F 53.1 °F 53% 30.01 in 9.0 mi SSW 11.5 mph 17.3 mph N/A   Clear
10:59 AM 71.6 °F 53.6 °F 53% 29.98 in 9.0 mi SSW 11.5 mph 17.3 mph N/A   Scattered Clouds
11:55 AM 72.0 °F 54.0 °F 53% 30.01 in 9.0 mi SSW 11.5 mph 17.3 mph N/A   Partly Cloudy
12:55 PM 72.0 °F 54.0 °F 53% 30.01 in 9.0 mi SW 12.7 mph - N/A   Clear
1:55 PM 73.0 °F 53.1 °F 49% 30.01 in 10.0 mi SW 13.8 mph 19.6 mph N/A   Partly Cloudy
2:55 PM 72.0 °F 53.1 °F 51% 30.01 in 10.0 mi WSW 12.7 mph 18.4 mph N/A   Partly Cloudy
3:55 PM 71.1 °F 51.1 °F 49% 30.01 in 10.0 mi WSW 10.4 mph - N/A   Clear
4:55 PM 71.1 °F 50.0 °F 47% 29.99 in 10.0 mi West 11.5 mph - N/A   Clear
5:55 PM 69.1 °F 48.9 °F 49% 29.98 in 10.0 mi West 10.4 mph - N/A   Clear
6:55 PM 66.0 °F 48.9 °F 54% 29.97 in 10.0 mi WSW 9.2 mph - N/A   Clear
7:55 PM 64.0 °F 45.0 °F 50% 29.98 in 10.0 mi WSW 6.9 mph - N/A   Clear
8:55 PM 63.0 °F 46.9 °F 56% 29.98 in 10.0 mi South 3.5 mph - N/A   Clear
9:55 PM 62.1 °F 48.0 °F 60% 29.99 in 10.0 mi Calm Calm - N/A   Clear
10:55 PM 61.0 °F 46.9 °F 60% 30.00 in 10.0 mi Calm Calm - N/A   Clear
11:55 PM 60.1 °F 46.9 °F 62% 30.01 in 10.0 mi Calm Calm - N/A   Clear